Location: Mauries
(43.6188°N, 0.3322°W)
Time: 11:46:31
(UTC+00:00)

Envisat - Pass Details

Date: 15 March 2026
Orbit: 761 x 762 km, 98.4° (Epoch: 14 April)

Event Time Altitude Azimuth Distance (km) Brightness Sun altitude
Rises 02:44:38 0° 13° (NNE) 3,234 6.9 -36.3°
Reaches altitude 10° 02:46:56 10° 14° (NNE) 2,304 6.0 -36.0°
Enters shadow 02:48:57 25° 14° (NNE) 1,527 4.9 -35.7°
